Las Cruces, NM

3:41 PM MDT on March 23, 2017 (GMT -0600)
Las Cruces International

Weather History for KLRU - January, 2014

Change the Weather History Date:

Sunday, January 5, 2014

  Actual Average Record
Temperature  
Mean Temperature 36 °F -  
Max Temperature 48 °F 53 °F 66 °F (2003)
Min Temperature 23 °F 31 °F 19 °F (2013)
Degree Days  
Heating Degree Days 28    
Moisture  
Dew Point 0 °F    
Average Humidity 21    
Maximum Humidity 37    
Minimum Humidity 10    
Precipitation  
Precipitation 0.00 in - - ()
Sea Level Pressure  
Sea Level Pressure 30.15 in    
Wind  
Wind Speed 10 mph (North)    
Max Wind Speed 16 mph    
Max Gust Speed 20 mph    
Visibility 10 miles    
Events      
Averages and records for this station are not official NWS values.
T = Trace of Precipitation, MM = Missing Value Source: NWS Daily Summary

Daily Weather History Graph

Daily Weather History Graph

Search for Another Location

Airport or City:

Trip Planner

Search our weather history database for the weather conditions in past years. The results will help you decide how hot, cold, wet, or windy it might be!

Date:

Astronomy

Jan. 05, 2014 Rise Set
Actual Time 7:09 AM MST 5:16 PM MST
Civil Twilight 6:42 AM MST 5:43 PM MST
Nautical Twilight 6:12 AM MST 6:14 PM MST
Astronomical Twilight 5:42 AM MST 6:44 PM MST
Moon 10:10 AM MST (1/5) 10:27 PM MST (1/5)
Length of Visible Light 11h 01m
Length of Day
10h 07m
Waxing Crescent, 25% of the Moon is Illuminated
Jan 5
Waxing Crescent
Jan 7
First Quarter
Jan 15
Full
Jan 23
Last Quarter
Jan 30
New

Hourly Weather History & Observations

Time (MST) Temp. Windchill Dew Point Humidity Pressure Visibility Wind Dir Wind Speed Gust Speed Precip Events Conditions
12:15 AM 48.7 °F - 20.5 °F 33% 30.00 in 10.0 mi North 9.2 mph - N/A   Clear
12:35 AM 43.7 °F 37.3 °F 18.5 °F 36% 30.00 in 10.0 mi NW 12.7 mph 18.4 mph N/A   Clear
12:55 AM 42.3 °F 35.9 °F 17.6 °F 37% 30.01 in 10.0 mi NW 11.5 mph 16.1 mph N/A   Clear
1:15 AM 41.5 °F 34.6 °F 16.7 °F 37% 30.02 in 10.0 mi NNW 12.7 mph - N/A   Clear
1:35 AM 41.2 °F 34.1 °F 15.8 °F 36% 30.03 in 10.0 mi NNW 12.7 mph - N/A   Clear
1:55 AM 40.6 °F 33.4 °F 14.7 °F 35% 30.04 in 10.0 mi NNW 12.7 mph - N/A   Clear
2:15 AM 39.6 °F 31.7 °F 14.0 °F 35% 30.03 in 10.0 mi NNW 13.8 mph - N/A   Clear
2:35 AM 38.8 °F 32.1 °F 12.9 °F 35% 30.04 in 10.0 mi North 10.4 mph - N/A   Clear
2:55 AM 38.7 °F 30.5 °F 11.1 °F 32% 30.04 in 10.0 mi NNW 13.8 mph - N/A   Clear
3:15 AM 37.8 °F 28.6 °F 9.3 °F 31% 30.05 in 10.0 mi NNW 16.1 mph - N/A   Clear
3:35 AM 37.0 °F 28.9 °F 8.2 °F 30% 30.05 in 10.0 mi NNW 12.7 mph - N/A   Clear
3:55 AM 36.9 °F 28.2 °F 7.2 °F 29% 30.05 in 10.0 mi NNW 13.8 mph - N/A   Clear
4:15 AM 36.5 °F 28.2 °F 6.3 °F 28% 30.05 in 10.0 mi NNW 12.7 mph - N/A   Clear
4:35 AM 35.6 °F 27.1 °F 5.2 °F 28% 30.05 in 10.0 mi NNW 12.7 mph - N/A   Clear
4:55 AM 35.6 °F 27.1 °F 4.1 °F 27% 30.06 in 10.0 mi NNW 12.7 mph - N/A   Clear
5:15 AM 35.6 °F 27.1 °F 3.0 °F 25% 30.06 in 10.0 mi NNW 12.7 mph - N/A   Clear
5:35 AM 34.9 °F 25.7 °F 2.3 °F 25% 30.07 in 10.0 mi NNW 13.8 mph - N/A   Clear
5:55 AM 34.7 °F 25.9 °F 1.8 °F 25% 30.08 in 10.0 mi NNW 12.7 mph - N/A   Clear
6:15 AM 34.7 °F 25.5 °F 1.0 °F 24% 30.08 in 10.0 mi NNW 13.8 mph 19.6 mph N/A   Clear
6:35 AM 34.2 °F 24.8 °F -0.0 °F 23% 30.09 in 10.0 mi NNW 13.8 mph - N/A   Clear
6:55 AM 34.0 °F 25.0 °F -0.8 °F 23% 30.11 in 10.0 mi NNW 12.7 mph - N/A   Clear
7:15 AM 33.8 °F 24.8 °F -1.3 °F 22% 30.12 in 10.0 mi NNW 12.7 mph - N/A   Clear
7:35 AM 33.8 °F 24.8 °F -1.8 °F 22% 30.13 in 10.0 mi NNW 12.7 mph - N/A   Clear
7:55 AM 34.0 °F 26.0 °F -1.5 °F 22% 30.15 in 10.0 mi NNW 10.4 mph 17.3 mph N/A   Clear
8:15 AM 34.7 °F 27.5 °F -1.3 °F 22% 30.16 in 10.0 mi North 9.2 mph - N/A   Clear
8:35 AM 36.0 °F 31.1 °F -1.3 °F 21% 30.17 in 10.0 mi North 5.8 mph - N/A   Clear
8:55 AM 37.6 °F 31.6 °F -1.7 °F 19% 30.18 in 10.0 mi North 8.1 mph - N/A   Clear
9:15 AM 38.1 °F 30.2 °F -1.8 °F 18% 30.20 in 10.0 mi NNW 12.7 mph - N/A   Clear
9:35 AM 38.8 °F 33.2 °F -1.3 °F 18% 30.21 in 10.0 mi North 8.1 mph - N/A   Clear
9:55 AM 39.6 °F 37.4 °F 0.1 °F 19% 30.21 in 10.0 mi NE 3.5 mph - N/A   Clear
10:15 AM 42.6 °F 37.8 °F 0.1 °F 17% 30.21 in 10.0 mi North 8.1 mph - N/A   Clear
10:35 AM 43.9 °F 38.8 °F -3.6 °F 14% 30.21 in 10.0 mi NNE 9.2 mph - N/A   Clear
10:55 AM 44.2 °F 38.0 °F -4.5 °F 13% 30.21 in 10.0 mi NNE 12.7 mph - N/A   Clear
11:15 AM 45.0 °F 41.2 °F -3.6 °F 13% 30.20 in 10.0 mi NNE 6.9 mph - N/A   Clear
11:35 AM 45.5 °F 40.3 °F -3.6 °F 13% 30.19 in 10.0 mi NNE 10.4 mph - N/A   Clear
11:55 AM 44.8 °F 39.4 °F -5.1 °F 12% 30.18 in 10.0 mi North 10.4 mph 16.1 mph N/A   Clear
12:15 PM 45.5 °F 39.9 °F -4.7 °F 12% 30.17 in 10.0 mi NNE 11.5 mph - N/A   Clear
12:35 PM 45.1 °F 40.8 °F -5.4 °F 12% 30.16 in 10.0 mi NNE 8.1 mph - N/A   Clear
12:55 PM 45.9 °F 40.0 °F -5.6 °F 12% 30.16 in 10.0 mi North 12.7 mph 16.1 mph N/A   Clear
1:15 PM 46.6 °F - -6.2 °F 11% 30.15 in 10.0 mi North 10.4 mph - N/A   Clear
1:35 PM 46.8 °F - -5.8 °F 11% 30.13 in 10.0 mi North 9.2 mph - N/A   Clear
1:55 PM 47.8 °F - -5.8 °F 11% 30.13 in 10.0 mi North 8.1 mph - N/A   Clear
2:15 PM 48.4 °F - -6.2 °F 10% 30.13 in 10.0 mi NNE 8.1 mph - N/A   Clear
2:35 PM 48.4 °F - -7.1 °F 10% 30.13 in 10.0 mi North 5.8 mph - N/A   Clear
2:55 PM 48.2 °F - -6.9 °F 10% 30.14 in 10.0 mi NNE 5.8 mph - N/A   Clear
3:15 PM 47.8 °F - -5.8 °F 11% 30.14 in 10.0 mi NNE 8.1 mph - N/A   Clear
3:35 PM 47.5 °F - -5.6 °F 11% 30.14 in 10.0 mi NE 8.1 mph - N/A   Clear
3:55 PM 47.3 °F - -5.4 °F 11% 30.14 in 10.0 mi North 3.5 mph - N/A   Clear
4:15 PM 46.9 °F - -5.4 °F 11% 30.15 in 10.0 mi Calm Calm - N/A   Clear
4:35 PM 46.0 °F - -4.4 °F 12% 30.15 in 10.0 mi Calm Calm - N/A   Clear
4:55 PM 44.8 °F - -4.9 °F 12% 30.16 in 10.0 mi Calm Calm - N/A   Clear
5:15 PM 42.4 °F - -4.2 °F 14% 30.16 in 10.0 mi Calm Calm - N/A   Clear
5:35 PM 40.8 °F 36.2 °F -3.3 °F 16% 30.17 in 10.0 mi SSE 6.9 mph - N/A   Clear
5:55 PM 39.4 °F 33.8 °F -4.0 °F 16% 30.18 in 10.0 mi SSE 8.1 mph - N/A   Clear
6:15 PM 38.3 °F 32.5 °F -4.7 °F 16% 30.18 in 10.0 mi South 8.1 mph - N/A   Clear
6:35 PM 37.6 °F 32.3 °F -5.3 °F 16% 30.19 in 10.0 mi South 6.9 mph - N/A   Clear
6:55 PM 37.0 °F 31.6 °F -5.8 °F 16% 30.20 in 10.0 mi SSE 6.9 mph - N/A   Clear
7:15 PM 36.9 °F 32.2 °F -6.5 °F 16% 30.21 in 10.0 mi SE 5.8 mph - N/A   Clear
7:35 PM 35.8 °F 30.9 °F -6.9 °F 16% 30.21 in 10.0 mi SE 5.8 mph - N/A   Clear
7:55 PM 35.4 °F 30.5 °F -7.2 °F 16% 30.22 in 10.0 mi SE 5.8 mph - N/A   Clear
8:15 PM 35.6 °F 31.7 °F -7.2 °F 16% 30.22 in 10.0 mi SE 4.6 mph - N/A   Clear
8:35 PM 35.1 °F 31.0 °F -7.4 °F 16% 30.22 in 10.0 mi SE 4.6 mph - N/A   Clear
8:55 PM 32.5 °F - -6.5 °F 19% 30.22 in 10.0 mi Calm Calm - N/A   Clear
9:15 PM 26.4 °F - -4.2 °F 26% 30.23 in 10.0 mi Calm Calm - N/A   Clear
9:35 PM 26.4 °F - -4.0 °F 27% 30.24 in 10.0 mi Calm Calm - N/A   Clear
9:55 PM 27.0 °F 21.6 °F -4.0 °F 26% 30.24 in 10.0 mi NNW 4.6 mph - N/A   Clear
10:15 PM 26.8 °F 20.2 °F -3.5 °F 27% 30.25 in 10.0 mi NNW 5.8 mph - N/A   Clear
10:35 PM 26.4 °F 19.8 °F -3.8 °F 27% 30.26 in 10.0 mi NNW 5.8 mph - N/A   Clear
10:55 PM 26.6 °F 21.2 °F -4.0 °F 26% 30.25 in 10.0 mi NW 4.6 mph - N/A   Clear
11:15 PM 26.1 °F 21.9 °F -4.0 °F 27% 30.25 in 10.0 mi NW 3.5 mph - N/A   Clear
11:35 PM 25.7 °F 19.0 °F -4.0 °F 27% 30.26 in 10.0 mi NNW 5.8 mph - N/A   Clear
11:55 PM 23.4 °F 16.2 °F -4.0 °F 30% 30.26 in 10.0 mi NNW 5.8 mph - N/A   Clear